Regional Weather Roundup
Issued by NWS Jackson, KY

Home | Current Version | Previous Version | Graphics & Text | Print | Product List | Glossary On
Versions: 1 2 3 4 5 6 7 8 9 10 11 12 13 14 15 16 17 18 19 20 21 22 23 24 25 26 27 28 29 30 31 32 33 34 35 36 37 38 39 40 41 42 43 44 45 46 47 48 49 50
000
ASUS43 KJKL 281710
RWRJKL

EAST KENTUCKY HOURLY WEATHER ROUNDUP
NATIONAL WEATHER SERVICE JACKSON KY
100 PM EDT SAT MAR 28 2015

NOTE: "FAIR" INDICATES FEW OR NO CLOUDS BELOW 12,000 FEET WITH
NO SIGNIFICANT WEATHER AND/OR OBSTRUCTIONS TO VISIBILITY.

* THESE REPORTS ARE NOT UNDER NWS QUALITY CONTROL AND MAY NOT
  REPORT WEATHER SUCH AS PRECIPITATION AND FOG.

KYZ079-080-083-085-087-088-110-112-115-119-120-281800
...EASTERN KENTUCKY...

CITY           SKY/WX    TMP DP  RH WIND       PRES   REMARKS
JACKSON        SUNNY     34  10  37 VRB5      30.19S WCI  30
LONDON         SUNNY     35  11  36 NE9       30.21S WCI  28
SOMERSET*      MOSUNNY   34  14  44 NE5       30.26S WCI  30
MONTICELLO*    SUNNY     36  14  40 VRB5      30.27S WCI  32
MIDDLESBORO*   SUNNY     37  17  45 NW7       30.20S WCI  31
HAZARD APT*    MOSUNNY   34  12  40 NW6       30.20S WCI  29
BLACK MTN*       N/A     21  21 100 NE8         N/A  WCI  12
PIKEVILLE APT* MOSUNNY   30   9  40 N6        30.18S WCI  24
BIG SANDY*     MOSUNNY   33  11  41 N9        30.20S WCI  25
MOREHEAD APT*  MOSUNNY   32  10  40 N9G17     30.26S WCI  24
$$

KYZ035-036-041-042-044-050-067-078-099-281800
...CENTRAL KENTUCKY...

CITY           SKY/WX    TMP DP  RH WIND       PRES   REMARKS
MT STERLING*   MOSUNNY   32  16  51 NE8       30.26S WCI  25
FLEMING/MASON* PTSUNNY   28  12  50 N12G17    30.28S WCI  18
DANVILLE*      MOSUNNY   32  18  55 N3        30.26S
RICHMOND*      MOSUNNY   32  12  43 NW3       30.25R
LEXINGTON      SUNNY     33  12  41 NE8       30.26S WCI  26
FRANKFORT      SUNNY     35  12  38 MISG      30.26F
$$

KYZ091>093-OHZ055-061-077-WVZ005-015-034-035-042-281800
...SOUTHERN OHIO/WEST VIRGINIA...

CITY           SKY/WX    TMP DP  RH WIND       PRES   REMARKS
COVINGTON      MOSUNNY   32  12  43 N10G16    30.28R WCI  24
COLUMBUS       PTSUNNY   25   9  50 N9G24     30.27S WCI  15
DAYTON         MOSUNNY   28  10  46 N6        30.29S WCI  22
WILMINGTON     MOSUNNY   27  10  49 N12G18    30.27R WCI  17
HUNTINGTON     PTSUNNY   29  10  45 N9        30.24S WCI  20
CHARLESTON     PTSUNNY   28   6  39 N9G18     30.21S WCI  19
PINEVILLE*     PTSUNNY   30  11  44 MISG      30.18R
BECKLEY        CLOUDY    20   9  62 NW17G24   30.07R WCI   5
BLUEFIELD      MOSUNNY   27   6  41 NW9G24    30.03S WCI  18
$$

VAZ002-007-008-TNZ017-027-036-066-071-281800
...SOUTHWEST VIRGINIA/EAST TENNESSEE...

CITY           SKY/WX    TMP DP  RH WIND       PRES   REMARKS
WISE*          PTSUNNY   28  14  54 N10       30.09S WCI  19
JONESVILLE*    SUNNY     36  10  35 NW7       30.18F WCI  30
ABINGDON*      MOSUNNY   32  13  46 NW15G21   30.10S WCI  21
BRISTOL        PTSUNNY   34  16  47 W10G17    30.14S WCI  26
KNOXVILLE      MOSUNNY   39  15  37 NW8       30.19S WCI  33
OAK RIDGE      SUNNY     43  16  33 VRB3      30.20S
CROSSVILLE     SUNNY     39  13  34 N10G16    30.17R WCI  32
NASHVILLE      MOSUNNY   42  12  29 N8        30.28F
$$

...KEY TO REMARKS...
VSB - VISIBILITY IN MILES
WCI - WIND CHILL INDEX
HX  - HEAT INDEX

$$



USA.gov is the U.S. government's official web portal to all federal, state and local government web resources and services.